Hourly Data Report for February 07, 2019

TORONTO INTL A
ONTARIO
Current Station Operator: NAVCAN

43°40'36.000" N
79°37'50.000" W
173.40 m
6158731
71624
YYZ

Download Data

Hourly Data (February 2019)
Hourly Data Report for February 7, 2019
TIME
LST
Temp Definition
°C
Dew Point Definition
°C
Rel Hum Definition
%
Precip. Amount Definition
mm

Wind Dir Definition
10's deg

Wind Spd Definition
km/h
Visibility Definition
km
Stn Press Definition
kPa
Hmdx Definition


Wind Chill Definition


Weather Definition


00:00 -2.2 -3.8 89   2 12 24.1 99.62   -6 LegendNANA
01:00 -2.5 -4.1 89   1 9 24.1 99.66   -6 Cloudy
02:00 -2.5 -4.3 88   34 9 24.1 99.72   -6 LegendNANA
03:00 -2.8 -4.6 88   35 12 24.1 99.75   -7 LegendNANA
04:00 -3.0 -4.8 87   36 16 24.1 99.76   -8 Cloudy
05:00 -3.2 -5.0 88   1 10 12.9 99.73   -7 Freezing Drizzle
06:00 -3.1 -4.8 89   4 8 8.1 99.69   -6 Freezing Drizzle, Fog
07:00 -3.0 -4.5 89   4 10 6.4 99.70   -7 Fog
08:00 -2.8 -4.3 90   9 8 4.8 99.73   -6 Fog
09:00 -2.5 -4.0 90   7 7 3.2 99.74   -5 Freezing Drizzle, Fog
10:00 -2.1 -3.4 90   10 13 2.4 99.69   -7 Freezing Drizzle, Fog
11:00 -1.8 -3.1 91   8 10 2.4 99.61   -5 Fog
12:00 -1.5 -2.7 91   9 10 2.0 99.49   -5 Fog
13:00 -1.8 -3.0 92   9 12 3.2 99.39   -6 Fog
14:00 -1.8 -2.9 92   9 14 2.0 99.32   -6 Fog
15:00 -1.8 -2.9 92   10 13 1.2 99.22   -6 Fog
16:00 -1.6 -2.6 93   9 13 1.2 99.19   -6 Freezing Rain, Fog
17:00 -1.2 -2.2 93   9 16 2.4 98.96   -6 Freezing Rain, Fog
18:00 -0.9 -1.9 93   11 22 1.0 98.68   -7 Fog
19:00 -0.2 -1.2 94   12 32 0.4 98.39   -7 Freezing Fog
20:00 0.7 -0.1 94   13 13 4.0 98.24     Drizzle, Fog
21:00 0.9 0.0 94   3 10 0.2 98.04     Fog
22:00 1.0 0.2 94   3 7 1.2 98.02     Fog
23:00 1.2 0.4 95   7 4 0.4 97.93     Drizzle, Fog

Notes on Data Quality.

Legend

  • E = Estimated
  • M = Missing
  • NA = Not Available*
  • [empty] = Indicates an unobserved value
Date modified: